When you browse on this site, cookies collect data to enhance your experience and personalize the content and advertising you see.
Visit our Privacy Policy to learn more. By continuing to use the site, you agree to this use of cookies and data.
  • en Suisse
  • Liste des pays
  • À 7 jours
  • Température de l'eau
  • Carte satellitaire
  • Carte météo
  • Widgets météo
  • user-avatar
    Se connecter

    Météo par heure à Kandahâr

    Ce jour, 20 Juin, Jeudi

    Heure Température Précipitation Vent Pression Humidité
    00:00 +27°C° 0 mm 1 m/s 667 mmHg 10%
    01:00 +26°C° 0 mm 1 m/s 667 mmHg 11%
    02:00 +26°C° 0 mm 1 m/s 667 mmHg 11%
    03:00 +23°C° 0 mm 0 m/s 667 mmHg 12%
    04:00 +22°C° 0 mm 0 m/s 667 mmHg 13%
    05:00 +27°C° 0 mm 1 m/s 668 mmHg 11%
    06:00 +30°C° 0 mm 1 m/s 669 mmHg 10%
    07:00 +33°C° 0 mm 1 m/s 670 mmHg 8%
    08:00 +35°C° 0 mm 2 m/s 671 mmHg 8%
    09:00 +37°C° 0 mm 3 m/s 671 mmHg 8%
    10:00 +40°C° 0 mm 4 m/s 671 mmHg 8%
    11:00 +40°C° 0 mm 3 m/s 671 mmHg 7%
    12:00 +42°C° 0 mm 3 m/s 670 mmHg 6%
    13:00 +42°C° 0 mm 3 m/s 670 mmHg 5%
    14:00 +42°C° 0 mm 3 m/s 669 mmHg 5%
    15:00 +43°C° 0 mm 3 m/s 669 mmHg 4%
    16:00 +43°C° 0 mm 3 m/s 668 mmHg 4%
    17:00 +39°C° 0 mm 3 m/s 668 mmHg 5%
    18:00 +37°C° 0 mm 3 m/s 668 mmHg 6%
    19:00 +35°C° 0 mm 3 m/s 668 mmHg 6%
    20:00 +34°C° 0 mm 2 m/s 668 mmHg 7%
    21:00 +31°C° 0 mm 2 m/s 668 mmHg 8%
    22:00 +30°C° 0 mm 1 m/s 668 mmHg 9%
    23:00 +29°C° 0 mm 1 m/s 667 mmHg 10%

    Demain, 21 Juin, Vendredi

    Heure Température Précipitation Vent Pression Humidité
    00:00 +29°C° 0 mm 1 m/s 667 mmHg 10%
    01:00 +28°C° 0 mm 2 m/s 667 mmHg 11%
    02:00 +27°C° 0 mm 1 m/s 667 mmHg 12%
    03:00 +26°C° 0 mm 1 m/s 667 mmHg 13%
    04:00 +26°C° 0 mm 1 m/s 667 mmHg 14%
    05:00 +28°C° 0 mm 1 m/s 668 mmHg 13%
    06:00 +30°C° 0 mm 2 m/s 669 mmHg 12%
    07:00 +32°C° 0 mm 2 m/s 670 mmHg 11%
    08:00 +35°C° 0 mm 2 m/s 670 mmHg 10%
    09:00 +37°C° 0 mm 3 m/s 670 mmHg 9%
    10:00 +38°C° 0 mm 4 m/s 670 mmHg 9%
    11:00 +41°C° 0 mm 5 m/s 670 mmHg 8%
    12:00 +42°C° 0 mm 6 m/s 670 mmHg 7%
    13:00 +44°C° 0 mm 7 m/s 670 mmHg 6%
    14:00 +44°C° 0 mm 8 m/s 669 mmHg 6%
    15:00 +45°C° 0 mm 8 m/s 669 mmHg 5%
    16:00 +45°C° 0 mm 8 m/s 669 mmHg 5%
    17:00 +41°C° 0 mm 6 m/s 668 mmHg 6%
    18:00 +39°C° 0 mm 5 m/s 668 mmHg 6%
    19:00 +36°C° 0 mm 4 m/s 668 mmHg 6%
    20:00 +34°C° 0 mm 3 m/s 668 mmHg 7%
    21:00 +33°C° 0 mm 3 m/s 668 mmHg 7%
    22:00 +31°C° 0 mm 3 m/s 668 mmHg 7%
    23:00 +29°C° 0 mm 3 m/s 668 mmHg 8%

    Après-demain, 22 Juin, Samedi

    Heure Température Précipitation Vent Pression Humidité
    00:00 +28°C° 0 mm 2 m/s 667 mmHg 9%
    01:00 +27°C° 0 mm 2 m/s 667 mmHg 10%
    02:00 +26°C° 0 mm 2 m/s 667 mmHg 12%
    03:00 +25°C° 0 mm 2 m/s 667 mmHg 14%
    04:00 +25°C° 0 mm 2 m/s 668 mmHg 15%
    05:00 +27°C° 0 mm 3 m/s 669 mmHg 17%
    06:00 +29°C° 0 mm 3 m/s 669 mmHg 19%
    07:00 +31°C° 0 mm 3 m/s 670 mmHg 21%
    08:00 +35°C° 0 mm 3 m/s 671 mmHg 16%
    09:00 +37°C° 0 mm 3 m/s 671 mmHg 11%
    10:00 +39°C° 0 mm 3 m/s 671 mmHg 6%
    11:00 +40°C° 0 mm 2 m/s 671 mmHg 6%
    12:00 +41°C° 0 mm 2 m/s 671 mmHg 5%
    13:00 +42°C° 0 mm 1 m/s 671 mmHg 5%
    14:00 +42°C° 0 mm 1 m/s 670 mmHg 4%
    15:00 +42°C° 0 mm 2 m/s 670 mmHg 4%
    16:00 +43°C° 0 mm 2 m/s 669 mmHg 4%
    17:00 +40°C° 0 mm 2 m/s 669 mmHg 5%
    18:00 +38°C° 0 mm 2 m/s 668 mmHg 6%
    19:00 +36°C° 0 mm 2 m/s 668 mmHg 7%
    20:00 +35°C° 0 mm 3 m/s 668 mmHg 8%
    21:00 +34°C° 0 mm 3 m/s 669 mmHg 9%
    22:00 +34°C° 0 mm 3 m/s 669 mmHg 9%
    23:00 +32°C° 0 mm 2 m/s 668 mmHg 10%

    23 Juin, Dimanche

    Heure Température Précipitation Vent Pression Humidité
    00:00 +30°C° 0 mm 2 m/s 668 mmHg 11%
    01:00 +29°C° 0 mm 2 m/s 668 mmHg 12%
    02:00 +29°C° 0 mm 2 m/s 668 mmHg 12%
    03:00 +28°C° 0 mm 2 m/s 668 mmHg 12%
    04:00 +28°C° 0 mm 2 m/s 668 mmHg 13%
    05:00 +30°C° 0 mm 2 m/s 669 mmHg 13%
    06:00 +32°C° 0 mm 2 m/s 669 mmHg 12%
    07:00 +35°C° 0 mm 2 m/s 670 mmHg 12%
    08:00 +36°C° 0 mm 2 m/s 670 mmHg 12%
    09:00 +38°C° 0 mm 2 m/s 671 mmHg 12%
    10:00 +40°C° 0 mm 2 m/s 671 mmHg 13%
    11:00 +42°C° 0 mm 3 m/s 671 mmHg 10%
    12:00 +43°C° 0 mm 3 m/s 670 mmHg 8%
    13:00 +45°C° 0 mm 4 m/s 670 mmHg 6%
    14:00 +46°C° 0 mm 5 m/s 669 mmHg 6%
    15:00 +46°C° 0 mm 6 m/s 669 mmHg 5%
    16:00 +46°C° 0 mm 6 m/s 668 mmHg 5%
    17:00 +44°C° 0 mm 6 m/s 668 mmHg 6%
    18:00 +41°C° 0 mm 5 m/s 668 mmHg 7%
    19:00 +37°C° 0 mm 5 m/s 667 mmHg 8%
    20:00 +36°C° 0 mm 4 m/s 667 mmHg 10%
    21:00 +34°C° 0 mm 3 m/s 668 mmHg 12%
    22:00 +33°C° 0 mm 3 m/s 668 mmHg 13%
    23:00 +30°C° 0 mm 2 m/s 667 mmHg 15%

    24 Juin, Lundi

    Heure Température Précipitation Vent Pression Humidité
    00:00 +29°C° 0 mm 1 m/s 667 mmHg 16%
    01:00 +26°C° 0 mm 0 m/s 666 mmHg 17%
    02:00 +27°C° 0 mm 1 m/s 667 mmHg 18%
    03:00 +27°C° 0 mm 1 m/s 667 mmHg 18%
    04:00 +27°C° 0 mm 1 m/s 667 mmHg 18%
    05:00 +29°C° 0 mm 2 m/s 668 mmHg 18%
    06:00 +32°C° 0 mm 4 m/s 668 mmHg 17%
    07:00 +34°C° 0 mm 5 m/s 669 mmHg 17%
    08:00 +36°C° 0 mm 5 m/s 669 mmHg 14%
    09:00 +39°C° 0 mm 5 m/s 670 mmHg 11%
    10:00 +41°C° 0 mm 5 m/s 670 mmHg 9%
    11:00 +42°C° 0 mm 6 m/s 670 mmHg 7%
    12:00 +44°C° 0 mm 6 m/s 669 mmHg 6%
    13:00 +44°C° 0 mm 6 m/s 669 mmHg 5%
    14:00 +43°C° 0 mm 5 m/s 669 mmHg 4%
    15:00 +43°C° 0 mm 4 m/s 668 mmHg 4%
    16:00 +43°C° 0 mm 4 m/s 668 mmHg 4%
    17:00 +39°C° 0 mm 3 m/s 668 mmHg 5%
    18:00 +36°C° 0 mm 2 m/s 667 mmHg 6%
    19:00 +32°C° 0 mm 2 m/s 667 mmHg 7%
    20:00 +31°C° 0 mm 2 m/s 667 mmHg 8%
    21:00 +30°C° 0 mm 2 m/s 667 mmHg 9%
    22:00 +29°C° 0 mm 2 m/s 667 mmHg 9%
    23:00 +28°C° 0 mm 1 m/s 667 mmHg 15%

    25 Juin, Mardi

    Heure Température Précipitation Vent Pression Humidité
    00:00 +27°C° 0 mm 1 m/s 667 mmHg 20%
    01:00 +24°C° 0 mm 0 m/s 667 mmHg 26%
    02:00 +26°C° 0 mm 1 m/s 667 mmHg 25%
    03:00 +27°C° 0 mm 1 m/s 667 mmHg 25%
    04:00 +27°C° 0 mm 2 m/s 668 mmHg 24%
    05:00 +29°C° 0 mm 2 m/s 668 mmHg 24%
    06:00 +31°C° 0 mm 3 m/s 669 mmHg 23%
    07:00 +34°C° 0 mm 4 m/s 670 mmHg 22%
    08:00 +36°C° 0 mm 4 m/s 670 mmHg 18%
    09:00 +38°C° 0 mm 4 m/s 670 mmHg 14%
    10:00 +41°C° 0 mm 4 m/s 671 mmHg 10%
    11:00 +42°C° 0 mm 4 m/s 670 mmHg 9%
    12:00 +43°C° 0 mm 4 m/s 670 mmHg 8%
    13:00 +45°C° 0 mm 5 m/s 670 mmHg 6%
    14:00 +44°C° 0 mm 4 m/s 669 mmHg 6%
    15:00 +44°C° 0 mm 4 m/s 669 mmHg 5%
    16:00 +44°C° 0 mm 3 m/s 668 mmHg 4%
    17:00 +42°C° 0 mm 3 m/s 668 mmHg 5%
    18:00 +38°C° 0 mm 4 m/s 667 mmHg 7%
    19:00 +36°C° 0 mm 4 m/s 667 mmHg 8%
    20:00 +35°C° 0 mm 3 m/s 667 mmHg 9%
    21:00 +33°C° 0 mm 3 m/s 667 mmHg 10%
    22:00 +31°C° 0 mm 2 m/s 667 mmHg 10%
    23:00 +30°C° 0 mm 2 m/s 667 mmHg 11%
    Voir plus